| time (UTC) | temp F | wind direction | speed MPH | gust MPH | rain 1hr in | rain 24hr in | rain mn in | humidity % | barometer mb |
| 20260508084512 | 51 | 78 | 1.0 | 4.0 | 0.00 | 0.00 | 0.00 | 38 | 1018.5 |
| 20260508083012 | 51 | 62 | 1.0 | 4.0 | 0.00 | 0.00 | 0.00 | 38 | 1018.5 |
| 20260508081514 | 51 | 46 | 0.0 | 3.0 | 0.00 | 0.00 | 0.00 | 39 | 1018.6 |
| 20260508080019 | 51 | 61 | 2.0 | 4.0 | 0.00 | 0.00 | 0.00 | 40 | 1018.8 |
| 20260508074520 | 53 | 64 | 2.0 | 3.0 | 0.00 | 0.00 | 0.00 | 39 | 1019.0 |
| 20260508073015 | 53 | 58 | 0.0 | 2.0 | 0.00 | 0.00 | 0.00 | 42 | 1019.1 |
| 20260508071523 | 52 | 68 | 0.0 | 2.0 | 0.00 | 0.00 | 0.00 | 45 | 1019.2 |
| 20260508070017 | 52 | 70 | 2.0 | 5.0 | 0.00 | 0.00 | 0.00 | 45 | 1019.3 |
| 20260508064520 | 53 | 67 | 1.0 | 5.0 | 0.00 | 0.00 | 0.00 | 43 | 1019.4 |
| 20260508063021 | 53 | 66 | 4.0 | 8.0 | 0.00 | 0.00 | 0.00 | 42 | 1019.4 |
| 20260508061522 | 53 | 50 | 5.0 | 9.0 | 0.00 | 0.00 | 0.00 | 43 | 1019.3 |
| 20260508060022 | 53 | 58 | 5.0 | 9.0 | 0.00 | 0.00 | 0.00 | 44 | 1019.3 |
| 20260508054522 | 54 | 62 | 3.0 | 10.0 | 0.00 | 0.00 | 0.00 | 40 | 1019.3 |
| 20260508053019 | 54 | 51 | 6.0 | 9.0 | 0.00 | 0.00 | 0.00 | 40 | 1019.4 |
| 20260508051526 | 54 | 51 | 6.0 | 10.0 | 0.00 | 0.00 | 0.00 | 44 | 1019.4 |
| 20260508050024 | 54 | 32 | 5.0 | 10.0 | 0.00 | 0.00 | 0.00 | 42 | 1019.4 |
| 20260508044523 | 55 | 46 | 5.0 | 9.0 | 0.00 | 0.00 | 0.00 | 43 | 1019.4 |
| 20260508043018 | 55 | 43 | 7.0 | 11.0 | 0.00 | 0.00 | 0.00 | 42 | 1019.3 |
| 20260508041513 | 55 | 34 | 3.0 | 5.0 | 0.00 | 0.00 | 0.00 | 40 | 1019.3 |
| 20260508040012 | 55 | 51 | 1.0 | 7.0 | 0.00 | 0.00 | 0.00 | 41 | 1019.2 |
| 20260508034506 | 54 | 43 | 3.0 | 6.0 | 0.00 | 0.00 | 0.00 | 40 | 1019.3 |
| 20260508033022 | 58 | 44 | 4.0 | 11.0 | 0.00 | 0.00 | 0.00 | 37 | 1019.3 |
| 20260508031520 | 58 | 84 | 1.0 | 5.0 | 0.00 | 0.00 | 0.00 | 38 | 1019.2 |
| 20260508030020 | 57 | 46 | 2.0 | 3.0 | 0.00 | 0.00 | 0.00 | 36 | 1019.1 |
| 20260508024516 | 59 | 61 | 2.0 | 5.0 | 0.00 | 0.00 | 0.00 | 35 | 1018.9 |
| 20260508023010 | 61 | 72 | 0.0 | 8.0 | 0.00 | 0.00 | 0.00 | 34 | 1018.7 |
| 20260508021520 | 60 | 13 | 1.0 | 6.0 | 0.00 | 0.00 | 0.00 | 33 | 1018.5 |
| 20260508020023 | 62 | 16 | 0.0 | 0.0 | 0.00 | 0.00 | 0.00 | 20 | 1018.2 |
| 20260508014524 | 66 | 49 | 0.0 | 1.0 | 0.00 | 0.00 | 0.00 | 18 | 1018.2 |
| 20260508013034 | 68 | 57 | 0.0 | 5.0 | 0.00 | 0.00 | 0.00 | 16 | 1018.1 |
| 20260508011516 | 69 | 57 | 0.0 | 3.0 | 0.00 | 0.00 | 0.00 | 15 | 1017.9 |
| 20260508010016 | 70 | 39 | 0.0 | 3.0 | 0.00 | 0.00 | 0.00 | 14 | 1017.8 |
| 20260508004512 | 71 | 77 | 0.0 | 3.0 | 0.00 | 0.00 | 0.00 | 14 | 1017.8 |
| 20260508003025 | 71 | 89 | 0.0 | 7.0 | 0.00 | 0.00 | 0.00 | 14 | 1017.8 |
| 20260508001526 | 72 | 63 | 2.0 | 5.0 | 0.00 | 0.00 | 0.00 | 13 | 1017.8 |
| 20260508000024 | 72 | 81 | 0.0 | 17.0 | 0.00 | 0.00 | 0.00 | 14 | 1017.9 |
| 20260507234522 | 72 | 72 | 9.0 | 17.0 | 0.00 | 0.00 | 0.00 | 13 | 1017.9 |
| 20260507233027 | 72 | 70 | 8.0 | 16.0 | 0.00 | 0.00 | 0.00 | 12 | 1018.0 |
| 20260507231514 | 72 | 44 | 13.0 | 18.0 | 0.00 | 0.00 | 0.00 | 11 | 1018.0 |
| 20260507230028 | 73 | 87 | 13.0 | 18.0 | 0.00 | 0.00 | 0.00 | 13 | 1018.1 |
| 20260507224508 | 73 | 127 | 9.0 | 18.0 | 0.00 | 0.00 | 0.00 | 13 | 1018.0 |
| 20260507223008 | 72 | 64 | 0.0 | 15.0 | 0.00 | 0.00 | 0.00 | 12 | 1018.1 |
| 20260507221507 | 73 | 98 | 8.0 | 19.0 | 0.00 | 0.00 | 0.00 | 11 | 1018.1 |
| 20260507220005 | 73 | 105 | 6.0 | 17.0 | 0.00 | 0.00 | 0.00 | 14 | 1018.2 |
| 20260507214503 | 72 | 148 | 1.0 | 13.0 | 0.00 | 0.00 | 0.00 | 15 | 1018.4 |
| 20260507213016 | 72 | 60 | 11.0 | 20.0 | 0.00 | 0.00 | 0.00 | 15 | 1018.7 |
| 20260507211512 | 72 | 50 | 13.0 | 22.0 | 0.00 | 0.00 | 0.00 | 15 | 1019.0 |
| 20260507210028 | 72 | 82 | 11.0 | 21.0 | 0.00 | 0.00 | 0.00 | 16 | 1019.2 |
| 20260507204504 | 72 | 77 | 16.0 | 22.0 | 0.00 | 0.00 | 0.00 | 16 | 1019.5 |
| 20260507203003 | 72 | 111 | 14.0 | 22.0 | 0.00 | 0.00 | 0.00 | 17 | 1019.6 |
| 20260507201508 | 71 | 79 | 15.0 | 22.0 | 0.00 | 0.00 | 0.00 | 17 | 1020.0 |
| 20260507200019 | 71 | 48 | 10.0 | 21.0 | 0.00 | 0.00 | 0.00 | 18 | 1020.1 |
| 20260507194518 | 70 | 64 | 8.0 | 19.0 | 0.00 | 0.00 | 0.00 | 18 | 1020.4 |
| 20260507193011 | 70 | 9 | 11.0 | 22.0 | 0.00 | 0.00 | 0.00 | 18 | 1020.7 |
| 20260507191508 | 69 | 22 | 13.0 | 21.0 | 0.00 | 0.00 | 0.00 | 19 | 1020.9 |
| 20260507190005 | 70 | 116 | 13.0 | 20.0 | 0.00 | 0.00 | 0.00 | 19 | 1021.0 |
| 20260507184514 | 68 | 85 | 1.0 | 17.0 | 0.00 | 0.00 | 0.00 | 22 | 1021.1 |
| 20260507183025 | 68 | 342 | 0.0 | 17.0 | 0.00 | 0.00 | 0.00 | 24 | 1021.4 |
| 20260507181519 | 67 | 74 | 6.0 | 18.0 | 0.00 | 0.00 | 0.00 | 24 | 1021.6 |
| 20260507180014 | 66 | 72 | 13.0 | 19.0 | 0.00 | 0.00 | 0.00 | 26 | 1021.7 |
| 20260507174513 | 66 | 79 | 11.0 | 16.0 | 0.00 | 0.00 | 0.00 | 27 | 1021.9 |
| 20260507173006 | 65 | 74 | 10.0 | 14.0 | 0.00 | 0.00 | 0.00 | 28 | 1021.9 |
| 20260507171506 | 64 | 91 | 1.0 | 15.0 | 0.00 | 0.00 | 0.00 | 28 | 1022.0 |
| 20260507170022 | 64 | 34 | 7.0 | 16.0 | 0.00 | 0.00 | 0.00 | 30 | 1022.1 |
| 20260507164520 | 64 | 82 | 8.0 | 15.0 | 0.00 | 0.00 | 0.00 | 30 | 1022.1 |
| 20260507163015 | 64 | 75 | 0.0 | 14.0 | 0.00 | 0.00 | 0.00 | 31 | 1022.2 |
| 20260507161513 | 65 | 167 | 2.0 | 13.0 | 0.00 | 0.00 | 0.00 | 31 | 1022.1 |
| 20260507160013 | 64 | 193 | 5.0 | 10.0 | 0.00 | 0.00 | 0.00 | 34 | 1022.2 |
| 20260507154516 | 61 | 231 | 0.0 | 9.0 | 0.00 | 0.00 | 0.00 | 38 | 1022.3 |
| 20260507153037 | 59 | 354 | 8.0 | 19.0 | 0.00 | 0.00 | 0.00 | 43 | 1022.5 |
| 20260507151521 | 57 | 66 | 14.0 | 21.0 | 0.00 | 0.00 | 0.00 | 47 | 1022.7 |
| 20260507150020 | 56 | 60 | 17.0 | 22.0 | 0.00 | 0.00 | 0.00 | 50 | 1022.7 |
| 20260507144518 | 54 | 37 | 18.0 | 23.0 | 0.00 | 0.00 | 0.00 | 53 | 1022.8 |
| 20260507143021 | 52 | 114 | 18.0 | 24.0 | 0.00 | 0.00 | 0.00 | 56 | 1022.7 |
| 20260507141527 | 51 | 79 | 17.0 | 26.0 | 0.00 | 0.00 | 0.00 | 60 | 1022.7 |
| 20260507140029 | 49 | 89 | 20.0 | 27.0 | 0.00 | 0.00 | 0.00 | 64 | 1022.7 |
| 20260507134505 | 47 | 84 | 21.0 | 28.0 | 0.00 | 0.00 | 0.00 | 67 | 1022.8 |
| 20260507133003 | 45 | 43 | 18.0 | 29.0 | 0.00 | 0.00 | 0.00 | 71 | 1022.6 |
| 20260507131505 | 44 | 50 | 21.0 | 28.0 | 0.00 | 0.00 | 0.00 | 73 | 1022.5 |
| 20260507130027 | 43 | 26 | 20.0 | 28.0 | 0.00 | 0.00 | 0.00 | 74 | 1022.6 |
| 20260507124519 | 42 | 99 | 20.0 | 28.0 | 0.00 | 0.00 | 0.00 | 76 | 1022.3 |
| 20260507123010 | 41 | 70 | 21.0 | 29.0 | 0.00 | 0.00 | 0.00 | 77 | 1022.2 |
| 20260507121506 | 41 | 220 | 18.0 | 29.0 | 0.00 | 0.00 | 0.00 | 77 | 1022.1 |
| 20260507120006 | 41 | 163 | 20.0 | 26.0 | 0.00 | 0.00 | 0.00 | 77 | 1022.2 |
| 20260507114524 | 41 | 72 | 19.0 | 27.0 | 0.00 | 0.00 | 0.00 | 76 | 1022.1 |
| 20260507113023 | 41 | 54 | 20.0 | 28.0 | 0.00 | 0.00 | 0.00 | 75 | 1022.1 |
| 20260507111517 | 42 | 68 | 23.0 | 29.0 | 0.00 | 0.00 | 0.00 | 73 | 1022.0 |
| 20260507110015 | 42 | 39 | 21.0 | 32.0 | 0.00 | 0.00 | 0.00 | 72 | 1022.1 |
| 20260507103013 | 43 | 46 | 23.0 | 31.0 | 0.00 | 0.00 | 0.00 | 70 | 1022.0 |
| 20260507101526 | 43 | 88 | 23.0 | 30.0 | 0.00 | 0.00 | 0.00 | 71 | 1022.1 |
| 20260507100027 | 43 | 50 | 20.0 | 26.0 | 0.00 | 0.00 | 0.00 | 71 | 1022.2 |
| 20260507094519 | 43 | 68 | 19.0 | 25.0 | 0.00 | 0.00 | 0.00 | 71 | 1022.1 |
| 20260507093016 | 43 | 61 | 20.0 | 28.0 | 0.00 | 0.00 | 0.00 | 70 | 1022.1 |
| 20260507091517 | 44 | 43 | 20.0 | 27.0 | 0.00 | 0.00 | 0.00 | 70 | 1022.1 |
| 20260507090008 | 43 | 23 | 18.0 | 22.0 | 0.00 | 0.00 | 0.00 | 71 | 1022.3 |